Year,Month,Day,Hour,Minute,Value (Times are PST for windspeed in km/hr)
2016,12,08,00,00,1.70
2016,12,08,00,01,5.30
2016,12,08,00,02,3.90
2016,12,08,00,03,2.20
2016,12,08,00,04,3.90
2016,12,08,00,05,0.50
2016,12,08,00,06,0.00
2016,12,08,00,07,0.30
2016,12,08,00,08,1.20
2016,12,08,00,09,0.20
2016,12,08,00,10,0.20
2016,12,08,00,11,1.80
2016,12,08,00,12,1.70
2016,12,08,00,13,0.00
2016,12,08,00,14,0.00
2016,12,08,00,15,0.60
2016,12,08,00,16,0.00
2016,12,08,00,17,0.00
2016,12,08,00,18,1.60
2016,12,08,00,19,0.30
2016,12,08,00,20,0.90
2016,12,08,00,21,1.20
2016,12,08,00,22,0.20
2016,12,08,00,23,0.60
2016,12,08,00,24,0.10
2016,12,08,00,25,0.00
2016,12,08,00,26,0.80
2016,12,08,00,27,3.50
2016,12,08,00,28,4.10
2016,12,08,00,29,3.00
2016,12,08,00,30,3.60
2016,12,08,00,31,0.40
2016,12,08,00,32,3.90
2016,12,08,00,33,2.20
2016,12,08,00,34,0.60
2016,12,08,00,35,1.00
2016,12,08,00,36,4.70
2016,12,08,00,37,2.10
2016,12,08,00,38,7.80
2016,12,08,00,39,6.80
2016,12,08,00,40,4.40
2016,12,08,00,41,2.20
2016,12,08,00,42,1.60
2016,12,08,00,43,0.30
2016,12,08,00,44,1.40
2016,12,08,00,45,1.10
2016,12,08,00,46,0.60
2016,12,08,00,47,2.40
2016,12,08,00,48,1.70
2016,12,08,00,49,2.50
2016,12,08,00,50,2.60
2016,12,08,00,51,0.00
2016,12,08,00,52,0.00
2016,12,08,00,53,2.50
2016,12,08,00,54,4.50
2016,12,08,00,55,0.30
2016,12,08,00,56,1.80
2016,12,08,00,57,1.10
2016,12,08,00,58,1.70
2016,12,08,00,59,1.80
2016,12,08,01,00,0.60
2016,12,08,01,01,2.30
2016,12,08,01,02,2.10
2016,12,08,01,03,3.70
2016,12,08,01,04,9.90
2016,12,08,01,05,2.20
2016,12,08,01,06,0.00
2016,12,08,01,07,1.50
2016,12,08,01,08,0.40
2016,12,08,01,09,5.00
2016,12,08,01,10,5.70
2016,12,08,01,11,1.90
2016,12,08,01,12,4.70
2016,12,08,01,13,2.10
2016,12,08,01,14,1.10
2016,12,08,01,15,1.10
2016,12,08,01,16,0.40
2016,12,08,01,17,3.00
2016,12,08,01,18,3.00
2016,12,08,01,19,2.00
2016,12,08,01,20,0.20
2016,12,08,01,21,1.00
2016,12,08,01,22,1.60
2016,12,08,01,23,0.10
2016,12,08,01,24,0.00
2016,12,08,01,25,3.80
2016,12,08,01,26,0.20
2016,12,08,01,27,1.00
2016,12,08,01,28,6.00
2016,12,08,01,29,0.00
2016,12,08,01,30,0.80
2016,12,08,01,31,0.00
2016,12,08,01,32,0.00
2016,12,08,01,33,0.20
2016,12,08,01,34,3.90
2016,12,08,01,35,0.10
2016,12,08,01,36,1.50
2016,12,08,01,37,3.80
2016,12,08,01,38,3.30
2016,12,08,01,39,0.90
2016,12,08,01,40,0.00
2016,12,08,01,41,1.40
2016,12,08,01,42,2.30
2016,12,08,01,43,1.90
2016,12,08,01,44,0.40
2016,12,08,01,45,3.90
2016,12,08,01,46,0.70
2016,12,08,01,47,0.30
2016,12,08,01,48,2.20
2016,12,08,01,49,2.00
2016,12,08,01,50,1.40
2016,12,08,01,51,2.00
2016,12,08,01,52,0.30
2016,12,08,01,53,0.00
2016,12,08,01,54,1.20
2016,12,08,01,55,3.00
2016,12,08,01,56,0.60
2016,12,08,01,57,0.70
2016,12,08,01,58,3.50
2016,12,08,01,59,2.50
2016,12,08,02,00,3.00
2016,12,08,02,01,1.40
2016,12,08,02,02,1.40
2016,12,08,02,03,0.20
2016,12,08,02,04,0.00
2016,12,08,02,05,0.40
2016,12,08,02,06,1.20
2016,12,08,02,07,1.40
2016,12,08,02,08,0.90
2016,12,08,02,09,2.60
2016,12,08,02,10,2.80
2016,12,08,02,11,3.80
2016,12,08,02,12,4.00
2016,12,08,02,13,0.90
2016,12,08,02,14,2.70
2016,12,08,02,15,0.80
2016,12,08,02,16,0.00
2016,12,08,02,17,0.30
2016,12,08,02,18,3.30
2016,12,08,02,19,0.60
2016,12,08,02,20,0.00
2016,12,08,02,21,0.40
2016,12,08,02,22,2.50
2016,12,08,02,23,0.00
2016,12,08,02,24,0.50
2016,12,08,02,25,3.00
2016,12,08,02,26,2.00
2016,12,08,02,27,0.50
2016,12,08,02,28,1.40
2016,12,08,02,29,2.50
2016,12,08,02,30,0.20
2016,12,08,02,31,1.20
2016,12,08,02,32,0.00
2016,12,08,02,33,0.00
2016,12,08,02,34,0.00
2016,12,08,02,35,0.00
2016,12,08,02,36,1.60
2016,12,08,02,37,1.20
2016,12,08,02,38,0.20
2016,12,08,02,39,0.30
2016,12,08,02,40,1.50
2016,12,08,02,41,0.60
2016,12,08,02,42,0.40
2016,12,08,02,43,1.00
2016,12,08,02,44,0.30
2016,12,08,02,45,4.40
2016,12,08,02,46,2.50
2016,12,08,02,47,1.00
2016,12,08,02,48,0.10
2016,12,08,02,49,1.70
2016,12,08,02,50,1.10
2016,12,08,02,51,0.10
2016,12,08,02,52,0.00
2016,12,08,02,53,3.30
2016,12,08,02,54,0.80
2016,12,08,02,55,2.40
2016,12,08,02,56,3.10
2016,12,08,02,57,1.20
2016,12,08,02,58,2.20
2016,12,08,02,59,0.00
2016,12,08,03,00,0.00
2016,12,08,03,01,0.00
2016,12,08,03,02,0.00
2016,12,08,03,03,0.00
2016,12,08,03,04,0.00
2016,12,08,03,05,0.00
2016,12,08,03,06,0.30
2016,12,08,03,07,0.00
2016,12,08,03,08,0.00
2016,12,08,03,09,0.60
2016,12,08,03,10,1.90
2016,12,08,03,11,1.90
2016,12,08,03,12,0.10
2016,12,08,03,13,0.60
2016,12,08,03,14,0.00
2016,12,08,03,15,2.50
2016,12,08,03,16,3.50
2016,12,08,03,17,2.30
2016,12,08,03,18,3.10
2016,12,08,03,19,0.30
2016,12,08,03,20,0.00
2016,12,08,03,21,0.00
2016,12,08,03,22,0.80
2016,12,08,03,23,2.50
2016,12,08,03,24,1.80
2016,12,08,03,25,0.10
2016,12,08,03,26,0.80
2016,12,08,03,27,2.90
2016,12,08,03,28,4.10
2016,12,08,03,29,0.20
2016,12,08,03,30,0.00
2016,12,08,03,31,0.00
2016,12,08,03,32,0.80
2016,12,08,03,33,0.80
2016,12,08,03,34,0.80
2016,12,08,03,35,0.70
2016,12,08,03,36,2.60
2016,12,08,03,37,2.30
2016,12,08,03,38,1.00
2016,12,08,03,39,1.00
2016,12,08,03,40,0.80
2016,12,08,03,41,1.40
2016,12,08,03,42,1.10
2016,12,08,03,43,3.70
2016,12,08,03,44,0.70
2016,12,08,03,45,0.00
2016,12,08,03,46,2.20
2016,12,08,03,47,0.20
2016,12,08,03,48,6.10
2016,12,08,03,49,2.10
2016,12,08,03,50,0.00
2016,12,08,03,51,2.70
2016,12,08,03,52,3.90
2016,12,08,03,53,1.40
2016,12,08,03,54,6.00
2016,12,08,03,55,4.10
2016,12,08,03,56,3.80
2016,12,08,03,57,2.30
2016,12,08,03,58,4.10
2016,12,08,03,59,1.60
2016,12,08,04,00,5.20
2016,12,08,04,01,4.10
2016,12,08,04,02,0.70
2016,12,08,04,03,2.70
2016,12,08,04,04,2.30
2016,12,08,04,05,5.10
2016,12,08,04,06,0.60
2016,12,08,04,07,1.30
2016,12,08,04,08,1.60
2016,12,08,04,09,3.90
2016,12,08,04,10,2.50
2016,12,08,04,11,1.90
2016,12,08,04,12,1.90
2016,12,08,04,13,1.60
2016,12,08,04,14,0.00
2016,12,08,04,15,2.00
2016,12,08,04,16,3.90
2016,12,08,04,17,3.00
2016,12,08,04,18,5.90
2016,12,08,04,19,4.70
2016,12,08,04,20,4.90
2016,12,08,04,21,8.00
2016,12,08,04,22,2.40
2016,12,08,04,23,1.70
2016,12,08,04,24,4.40
2016,12,08,04,25,4.90
2016,12,08,04,26,3.90
2016,12,08,04,27,4.40
2016,12,08,04,28,2.70
2016,12,08,04,29,2.10
2016,12,08,04,30,3.70
2016,12,08,04,31,3.10
2016,12,08,04,32,3.10
2016,12,08,04,33,3.00
2016,12,08,04,34,0.00
2016,12,08,04,35,1.30
2016,12,08,04,36,1.60
2016,12,08,04,37,7.40
2016,12,08,04,38,6.70
2016,12,08,04,39,5.90
2016,12,08,04,40,0.90
2016,12,08,04,41,0.00
2016,12,08,04,42,0.00
2016,12,08,04,43,1.30
2016,12,08,04,44,1.00
2016,12,08,04,45,3.50
2016,12,08,04,46,2.90
2016,12,08,04,47,5.30
2016,12,08,04,48,2.40
2016,12,08,04,49,0.00
2016,12,08,04,50,0.90
2016,12,08,04,51,5.60
2016,12,08,04,52,6.10
2016,12,08,04,53,3.50
2016,12,08,04,54,0.80
2016,12,08,04,55,2.00
2016,12,08,04,56,4.10
2016,12,08,04,57,1.60
2016,12,08,04,58,1.60
2016,12,08,04,59,3.60
2016,12,08,05,00,6.40
2016,12,08,05,01,1.00
2016,12,08,05,02,3.80
2016,12,08,05,03,4.30
2016,12,08,05,04,4.50
2016,12,08,05,05,6.40
2016,12,08,05,06,3.50
2016,12,08,05,07,0.10
2016,12,08,05,08,1.70
2016,12,08,05,09,8.50
2016,12,08,05,10,5.70
2016,12,08,05,11,5.20
2016,12,08,05,12,7.50
2016,12,08,05,13,7.20
2016,12,08,05,14,10.00
2016,12,08,05,15,13.50
2016,12,08,05,16,5.10
2016,12,08,05,17,13.60
2016,12,08,05,18,4.10
2016,12,08,05,19,1.20
2016,12,08,05,20,1.30
2016,12,08,05,21,4.70
2016,12,08,05,22,8.70
2016,12,08,05,23,6.80
2016,12,08,05,24,4.70
2016,12,08,05,25,4.50
2016,12,08,05,26,4.30
2016,12,08,05,27,6.20
2016,12,08,05,28,12.20
2016,12,08,05,29,3.50
2016,12,08,05,30,4.50
2016,12,08,05,31,7.20
2016,12,08,05,32,19.10
2016,12,08,05,33,3.10
2016,12,08,05,34,2.50
2016,12,08,05,35,9.50
2016,12,08,05,36,2.30
2016,12,08,05,37,2.60
2016,12,08,05,38,6.90
2016,12,08,05,39,3.70
2016,12,08,05,40,9.80
2016,12,08,05,41,9.30
2016,12,08,05,42,7.20
2016,12,08,05,43,7.40
2016,12,08,05,44,4.10
2016,12,08,05,45,1.50
2016,12,08,05,46,4.40
2016,12,08,05,47,4.20
2016,12,08,05,48,2.70
2016,12,08,05,49,5.60
2016,12,08,05,50,6.20
2016,12,08,05,51,5.30
2016,12,08,05,52,4.90
2016,12,08,05,53,1.40
2016,12,08,05,54,2.20
2016,12,08,05,55,1.80
2016,12,08,05,56,3.70
2016,12,08,05,57,5.60
2016,12,08,05,58,6.00
2016,12,08,05,59,5.10
2016,12,08,06,00,4.60
2016,12,08,06,01,1.70
2016,12,08,06,02,4.30
2016,12,08,06,03,3.10
2016,12,08,06,04,4.50
2016,12,08,06,05,6.90
2016,12,08,06,06,5.70
2016,12,08,06,07,10.60
2016,12,08,06,08,6.80
2016,12,08,06,09,9.70
2016,12,08,06,10,8.50
2016,12,08,06,11,10.20
2016,12,08,06,12,7.40
2016,12,08,06,13,6.70
2016,12,08,06,14,5.00
2016,12,08,06,15,3.30
2016,12,08,06,16,6.30
2016,12,08,06,17,11.10
2016,12,08,06,18,7.80
2016,12,08,06,19,5.20
2016,12,08,06,20,4.00
2016,12,08,06,21,1.90
2016,12,08,06,22,2.10
2016,12,08,06,23,6.10
2016,12,08,06,24,1.80
2016,12,08,06,25,2.80
2016,12,08,06,26,5.00
2016,12,08,06,27,0.00
2016,12,08,06,28,0.00
2016,12,08,06,29,0.00
2016,12,08,06,30,2.00
2016,12,08,06,31,1.20
2016,12,08,06,32,3.00
2016,12,08,06,33,9.70
2016,12,08,06,34,15.00
2016,12,08,06,35,7.60
2016,12,08,06,36,5.20
2016,12,08,06,37,6.90
2016,12,08,06,38,6.90
2016,12,08,06,39,3.30
2016,12,08,06,40,3.60
2016,12,08,06,41,5.90
2016,12,08,06,42,3.60
2016,12,08,06,43,4.80
2016,12,08,06,44,1.90
2016,12,08,06,45,4.50
2016,12,08,06,46,6.90
2016,12,08,06,47,5.30
2016,12,08,06,48,4.50
2016,12,08,06,49,1.00
2016,12,08,06,50,0.30
2016,12,08,06,51,1.00
2016,12,08,06,52,1.80
2016,12,08,06,53,3.50
2016,12,08,06,54,6.00
2016,12,08,06,55,2.30
2016,12,08,06,56,3.70
2016,12,08,06,57,3.20
2016,12,08,06,58,3.80
2016,12,08,06,59,5.60
2016,12,08,07,00,6.20
2016,12,08,07,01,3.20
2016,12,08,07,02,3.70
2016,12,08,07,03,2.10
2016,12,08,07,04,4.70
2016,12,08,07,05,5.20
2016,12,08,07,06,1.50
2016,12,08,07,07,0.00
2016,12,08,07,08,3.00
2016,12,08,07,09,2.10
2016,12,08,07,10,3.80
2016,12,08,07,11,0.30
2016,12,08,07,12,0.10
2016,12,08,07,13,0.00
2016,12,08,07,14,0.00
2016,12,08,07,15,0.00
2016,12,08,07,16,0.20
2016,12,08,07,17,3.60
2016,12,08,07,18,0.00
2016,12,08,07,19,0.00
2016,12,08,07,20,3.00
2016,12,08,07,21,5.00
2016,12,08,07,22,0.70
2016,12,08,07,23,1.40
2016,12,08,07,24,2.60
2016,12,08,07,25,1.20
2016,12,08,07,26,0.00
2016,12,08,07,27,0.00
2016,12,08,07,28,0.00
2016,12,08,07,29,0.40
2016,12,08,07,30,0.00
2016,12,08,07,31,0.00
2016,12,08,07,32,1.00
2016,12,08,07,33,2.40
2016,12,08,07,34,0.00
2016,12,08,07,35,0.00
2016,12,08,07,36,3.80
2016,12,08,07,37,3.00
2016,12,08,07,38,2.50
2016,12,08,07,39,4.20
2016,12,08,07,40,1.60
2016,12,08,07,41,0.70
2016,12,08,07,42,0.00
2016,12,08,07,43,1.00
2016,12,08,07,44,0.20
2016,12,08,07,45,1.40
2016,12,08,07,46,3.10
2016,12,08,07,47,0.00
2016,12,08,07,48,0.10
2016,12,08,07,49,0.00
2016,12,08,07,50,0.00
2016,12,08,07,51,0.90
2016,12,08,07,52,1.90
2016,12,08,07,53,0.30
2016,12,08,07,54,0.00
2016,12,08,07,55,0.00
2016,12,08,07,56,1.30
2016,12,08,07,57,0.00
2016,12,08,07,58,2.20
2016,12,08,07,59,0.00
2016,12,08,08,00,0.00
2016,12,08,08,01,1.20
2016,12,08,08,02,2.00
2016,12,08,08,03,1.70
2016,12,08,08,04,0.00
2016,12,08,08,05,0.00
2016,12,08,08,06,0.00
2016,12,08,08,07,0.00
2016,12,08,08,08,0.00
2016,12,08,08,09,0.00
2016,12,08,08,10,3.00
2016,12,08,08,11,2.70
2016,12,08,08,12,0.00
2016,12,08,08,13,2.00
2016,12,08,08,14,1.30
2016,12,08,08,15,1.30
2016,12,08,08,16,0.20
2016,12,08,08,17,2.10
2016,12,08,08,18,2.70
2016,12,08,08,19,3.70
2016,12,08,08,20,2.50
2016,12,08,08,21,0.70
2016,12,08,08,22,2.60
2016,12,08,08,23,0.80
2016,12,08,08,24,0.00
2016,12,08,08,25,0.90
2016,12,08,08,26,2.50
2016,12,08,08,27,0.70
2016,12,08,08,28,0.30
2016,12,08,08,29,0.00
2016,12,08,08,30,1.90
2016,12,08,08,31,0.50
2016,12,08,08,32,2.90
2016,12,08,08,33,1.10
2016,12,08,08,34,1.60
2016,12,08,08,35,0.60
2016,12,08,08,36,0.60
2016,12,08,08,37,5.20
2016,12,08,08,38,10.20
2016,12,08,08,39,13.00
2016,12,08,08,40,6.00
2016,12,08,08,41,3.40
2016,12,08,08,42,6.10
2016,12,08,08,43,6.40
2016,12,08,08,44,7.60
2016,12,08,08,45,8.30
2016,12,08,08,46,7.90
2016,12,08,08,47,12.60
2016,12,08,08,48,8.30
2016,12,08,08,49,12.30
2016,12,08,08,50,8.10
2016,12,08,08,51,8.00
2016,12,08,08,52,5.90
2016,12,08,08,53,8.00
2016,12,08,08,54,11.40
2016,12,08,08,55,7.10
2016,12,08,08,56,6.60
2016,12,08,08,57,4.40
2016,12,08,08,58,9.70
2016,12,08,08,59,9.70
2016,12,08,09,00,8.70
2016,12,08,09,01,7.20
2016,12,08,09,02,8.80
2016,12,08,09,03,4.40
2016,12,08,09,04,12.40
2016,12,08,09,05,10.50
2016,12,08,09,06,10.70
2016,12,08,09,07,6.60
2016,12,08,09,08,8.90
2016,12,08,09,09,7.30
2016,12,08,09,10,10.40
2016,12,08,09,11,14.80
2016,12,08,09,12,10.60
2016,12,08,09,13,4.70
2016,12,08,09,14,8.60
2016,12,08,09,15,9.40
2016,12,08,09,16,12.20
2016,12,08,09,17,5.60
2016,12,08,09,18,13.40
2016,12,08,09,19,11.20
2016,12,08,09,20,6.80
2016,12,08,09,21,10.70
2016,12,08,09,22,11.30
2016,12,08,09,23,7.40
2016,12,08,09,24,4.80
2016,12,08,09,25,5.20
2016,12,08,09,26,9.70
2016,12,08,09,27,4.90
2016,12,08,09,28,10.90
2016,12,08,09,29,11.50
2016,12,08,09,30,9.30
2016,12,08,09,31,8.80
2016,12,08,09,32,5.20
2016,12,08,09,33,14.80
2016,12,08,09,34,7.20
2016,12,08,09,35,18.90
2016,12,08,09,36,7.70
2016,12,08,09,37,8.40
2016,12,08,09,38,9.80
2016,12,08,09,39,9.60
2016,12,08,09,40,8.50
2016,12,08,09,41,6.40
2016,12,08,09,42,11.30
2016,12,08,09,43,11.50
2016,12,08,09,44,17.30
2016,12,08,09,45,11.60
2016,12,08,09,46,8.30
2016,12,08,09,47,8.10
2016,12,08,09,48,9.90
2016,12,08,09,49,12.00
2016,12,08,09,50,14.60
2016,12,08,09,51,17.00
2016,12,08,09,52,6.00
2016,12,08,09,53,7.40
2016,12,08,09,54,8.70
2016,12,08,09,55,8.20
2016,12,08,09,56,12.50
2016,12,08,09,57,8.70
2016,12,08,09,58,5.10
2016,12,08,09,59,7.80
2016,12,08,10,00,6.70
2016,12,08,10,01,7.40
2016,12,08,10,02,2.50
2016,12,08,10,03,3.20
2016,12,08,10,04,11.80
2016,12,08,10,05,14.80
2016,12,08,10,06,12.90
2016,12,08,10,07,5.00
2016,12,08,10,08,11.90
2016,12,08,10,09,4.80
2016,12,08,10,10,4.50
2016,12,08,10,11,10.90
2016,12,08,10,12,4.70
2016,12,08,10,13,10.50
2016,12,08,10,14,7.20
2016,12,08,10,15,15.30
2016,12,08,10,16,8.40
2016,12,08,10,17,6.40
2016,12,08,10,18,9.40
2016,12,08,10,19,10.00
2016,12,08,10,20,13.20
2016,12,08,10,21,7.30
2016,12,08,10,22,10.90
2016,12,08,10,23,8.20
2016,12,08,10,24,10.50
2016,12,08,10,25,6.80
2016,12,08,10,26,13.00
2016,12,08,10,27,8.60
2016,12,08,10,28,7.60
2016,12,08,10,29,15.00
2016,12,08,10,30,15.10
2016,12,08,10,31,11.80
2016,12,08,10,32,6.20
2016,12,08,10,33,10.00
2016,12,08,10,34,10.00
2016,12,08,10,35,2.50
2016,12,08,10,36,11.50
2016,12,08,10,37,17.70
2016,12,08,10,38,4.90
2016,12,08,10,39,8.80
2016,12,08,10,40,4.80
2016,12,08,10,41,7.50
2016,12,08,10,42,10.40
2016,12,08,10,43,7.30
2016,12,08,10,44,7.60
2016,12,08,10,45,6.90
2016,12,08,10,46,13.80
2016,12,08,10,47,5.00
2016,12,08,10,48,6.10
2016,12,08,10,49,7.20
2016,12,08,10,50,5.40
2016,12,08,10,51,8.50
2016,12,08,10,52,13.00
2016,12,08,10,53,5.50
2016,12,08,10,54,6.30
2016,12,08,10,55,6.50
2016,12,08,10,56,10.00
2016,12,08,10,57,11.90
2016,12,08,10,58,13.60
2016,12,08,10,59,7.50
2016,12,08,11,00,10.40
2016,12,08,11,01,5.10
2016,12,08,11,02,3.30
2016,12,08,11,03,5.80
2016,12,08,11,04,8.40
2016,12,08,11,05,12.10
2016,12,08,11,06,8.30
2016,12,08,11,07,10.90
2016,12,08,11,08,2.70
2016,12,08,11,09,6.50
2016,12,08,11,10,6.10
2016,12,08,11,11,9.90
2016,12,08,11,12,5.00
2016,12,08,11,13,11.30
2016,12,08,11,14,5.60
2016,12,08,11,15,7.30
2016,12,08,11,16,2.40
2016,12,08,11,17,4.80
2016,12,08,11,18,4.80
2016,12,08,11,19,6.00
2016,12,08,11,20,6.00
2016,12,08,11,21,5.90
2016,12,08,11,22,7.80
2016,12,08,11,23,8.40
2016,12,08,11,24,4.30
2016,12,08,11,25,6.40
2016,12,08,11,26,5.50
2016,12,08,11,27,3.00
2016,12,08,11,28,2.70
2016,12,08,11,29,8.30
2016,12,08,11,30,5.50
2016,12,08,11,31,6.40
2016,12,08,11,32,13.00
2016,12,08,11,33,6.60
2016,12,08,11,34,3.10
2016,12,08,11,35,9.20
2016,12,08,11,36,6.10
2016,12,08,11,37,10.10
2016,12,08,11,38,3.90
2016,12,08,11,39,15.80
2016,12,08,11,40,7.50
2016,12,08,11,41,6.50
2016,12,08,11,42,11.10
2016,12,08,11,43,5.90
2016,12,08,11,44,6.70
2016,12,08,11,45,19.40
2016,12,08,11,46,9.80
2016,12,08,11,47,6.70
2016,12,08,11,48,7.60
2016,12,08,11,49,7.20
2016,12,08,11,50,11.80
2016,12,08,11,51,14.30
2016,12,08,11,52,8.10
2016,12,08,11,53,16.30
2016,12,08,11,54,17.10
2016,12,08,11,55,4.70
2016,12,08,11,56,6.00
2016,12,08,11,57,9.50
2016,12,08,11,58,3.30
2016,12,08,11,59,13.00
2016,12,08,12,00,17.90
2016,12,08,12,01,9.70
2016,12,08,12,02,4.80
2016,12,08,12,03,7.60
2016,12,08,12,04,10.50
2016,12,08,12,05,2.20
2016,12,08,12,06,6.30
2016,12,08,12,07,6.00
2016,12,08,12,08,8.10
2016,12,08,12,09,10.80
2016,12,08,12,10,11.90
2016,12,08,12,11,9.10
2016,12,08,12,12,11.10
2016,12,08,12,13,13.30
2016,12,08,12,14,13.00
2016,12,08,12,15,5.00
2016,12,08,12,16,6.70
2016,12,08,12,17,12.40
2016,12,08,12,18,8.20
2016,12,08,12,19,13.50
2016,12,08,12,20,8.10
2016,12,08,12,21,6.10
2016,12,08,12,22,9.70
2016,12,08,12,23,2.00
2016,12,08,12,24,7.80
2016,12,08,12,25,7.90
2016,12,08,12,26,11.20
2016,12,08,12,27,4.30
2016,12,08,12,28,6.00
2016,12,08,12,29,5.40
2016,12,08,12,30,1.40
2016,12,08,12,31,4.10
2016,12,08,12,32,10.50
2016,12,08,12,33,9.00
2016,12,08,12,34,7.70
2016,12,08,12,35,9.70
2016,12,08,12,36,7.50
2016,12,08,12,37,8.00
2016,12,08,12,38,12.70
2016,12,08,12,39,15.30
2016,12,08,12,40,6.60
2016,12,08,12,41,8.40
2016,12,08,12,42,12.30
2016,12,08,12,43,10.80
2016,12,08,12,44,9.70
2016,12,08,12,45,9.00
2016,12,08,12,46,6.40
2016,12,08,12,47,10.60
2016,12,08,12,48,8.50
2016,12,08,12,49,4.10
2016,12,08,12,50,11.40
2016,12,08,12,51,11.30
2016,12,08,12,52,6.00
2016,12,08,12,53,12.00
2016,12,08,12,54,5.20
2016,12,08,12,55,1.90
2016,12,08,12,56,8.80
2016,12,08,12,57,6.00
2016,12,08,12,58,10.00
2016,12,08,12,59,11.30
2016,12,08,13,00,11.30
2016,12,08,13,01,11.30
2016,12,08,13,02,11.30
2016,12,08,13,03,9.10
2016,12,08,13,04,10.00
2016,12,08,13,05,3.60
2016,12,08,13,06,3.60
2016,12,08,13,07,6.80
2016,12,08,13,08,4.80
2016,12,08,13,09,5.20
2016,12,08,13,10,7.40
2016,12,08,13,11,1.60
2016,12,08,13,12,1.60
2016,12,08,13,13,1.60
2016,12,08,13,14,8.60
2016,12,08,13,15,6.80
2016,12,08,13,16,11.60
2016,12,08,13,17,13.00
2016,12,08,13,18,7.60
2016,12,08,13,19,19.50
2016,12,08,13,20,10.80
2016,12,08,13,21,16.40
2016,12,08,13,22,21.20
2016,12,08,13,23,13.80
2016,12,08,13,24,10.90
2016,12,08,13,25,13.40
2016,12,08,13,26,10.90
2016,12,08,13,27,8.40
2016,12,08,13,28,18.70
2016,12,08,13,29,7.10
2016,12,08,13,30,6.00
2016,12,08,13,31,9.60
2016,12,08,13,32,10.40
2016,12,08,13,33,25.10
2016,12,08,13,34,18.10
2016,12,08,13,35,18.60
2016,12,08,13,36,7.20
2016,12,08,13,37,17.10
2016,12,08,13,38,14.40
2016,12,08,13,39,18.50
2016,12,08,13,40,15.90
2016,12,08,13,41,13.20
2016,12,08,13,42,11.50
2016,12,08,13,43,11.10
2016,12,08,13,44,13.50
2016,12,08,13,45,14.20
2016,12,08,13,46,5.80
2016,12,08,13,47,13.40
2016,12,08,13,48,17.60
2016,12,08,13,49,13.10
2016,12,08,13,50,18.00
2016,12,08,13,51,11.40
2016,12,08,13,52,14.20
2016,12,08,13,53,18.50
2016,12,08,13,54,12.60
2016,12,08,13,55,18.00
2016,12,08,13,56,7.50
2016,12,08,13,57,9.10
2016,12,08,13,58,16.30
2016,12,08,13,59,8.70
2016,12,08,14,00,16.30
2016,12,08,14,01,20.50
2016,12,08,14,02,12.30
2016,12,08,14,03,15.20
2016,12,08,14,04,14.70
2016,12,08,14,05,17.90
2016,12,08,14,06,18.20
2016,12,08,14,07,13.00
2016,12,08,14,08,16.40
2016,12,08,14,09,19.20
2016,12,08,14,10,18.90
2016,12,08,14,11,12.80
2016,12,08,14,12,14.30
2016,12,08,14,13,11.00
2016,12,08,14,14,6.40
2016,12,08,14,15,8.20
2016,12,08,14,16,15.80
2016,12,08,14,17,14.30
2016,12,08,14,18,4.70
2016,12,08,14,19,17.60
2016,12,08,14,20,10.90
2016,12,08,14,21,13.70
2016,12,08,14,22,8.60
2016,12,08,14,23,21.80
2016,12,08,14,24,15.00
2016,12,08,14,25,19.80
2016,12,08,14,26,9.40
2016,12,08,14,27,14.60
2016,12,08,14,28,23.80
2016,12,08,14,29,8.40
2016,12,08,14,30,14.60
2016,12,08,14,31,11.30
2016,12,08,14,32,11.60
2016,12,08,14,33,11.60
2016,12,08,14,34,13.00
2016,12,08,14,35,15.80
2016,12,08,14,36,11.90
2016,12,08,14,37,10.90
2016,12,08,14,38,6.30
2016,12,08,14,39,14.30
2016,12,08,14,40,13.10
2016,12,08,14,41,25.70
2016,12,08,14,42,12.60
2016,12,08,14,43,9.60
2016,12,08,14,44,15.80
2016,12,08,14,45,10.10
2016,12,08,14,46,17.70
2016,12,08,14,47,14.50
2016,12,08,14,48,15.50
2016,12,08,14,49,14.30
2016,12,08,14,50,14.90
2016,12,08,14,51,16.20
2016,12,08,14,52,12.70
2016,12,08,14,53,12.10
2016,12,08,14,54,9.30
2016,12,08,14,55,20.10
2016,12,08,14,56,13.10
2016,12,08,14,57,11.60
2016,12,08,14,58,10.10
2016,12,08,14,59,12.30
2016,12,08,15,00,17.80
2016,12,08,15,01,18.00
2016,12,08,15,02,21.90
2016,12,08,15,03,23.30
2016,12,08,15,04,17.90
2016,12,08,15,05,21.50
2016,12,08,15,06,17.90
2016,12,08,15,07,26.60
2016,12,08,15,08,15.70
2016,12,08,15,09,14.40
2016,12,08,15,10,15.10
2016,12,08,15,11,20.10
2016,12,08,15,12,14.70
2016,12,08,15,13,9.50
2016,12,08,15,14,28.70
2016,12,08,15,15,32.20
2016,12,08,15,16,23.30
2016,12,08,15,17,12.60
2016,12,08,15,18,24.60
2016,12,08,15,19,15.50
2016,12,08,15,20,15.80
2016,12,08,15,21,13.20
2016,12,08,15,22,14.70
2016,12,08,15,23,14.10
2016,12,08,15,24,10.10
2016,12,08,15,25,14.40
2016,12,08,15,26,9.10
2016,12,08,15,27,14.60
2016,12,08,15,28,10.50
2016,12,08,15,29,10.90
2016,12,08,15,30,10.40
2016,12,08,15,31,8.00
2016,12,08,15,32,13.00
2016,12,08,15,33,11.50
2016,12,08,15,34,7.60
2016,12,08,15,35,9.60
2016,12,08,15,36,8.90
2016,12,08,15,37,11.70
2016,12,08,15,38,10.90
2016,12,08,15,39,14.00
2016,12,08,15,40,7.60
2016,12,08,15,41,5.90
2016,12,08,15,42,5.90
2016,12,08,15,43,13.60
2016,12,08,15,44,3.90
2016,12,08,15,45,8.30
2016,12,08,15,46,6.80
2016,12,08,15,47,15.90
2016,12,08,15,48,4.90
2016,12,08,15,49,13.10
2016,12,08,15,50,13.80
2016,12,08,15,51,18.70
2016,12,08,15,52,9.20
2016,12,08,15,53,9.80
2016,12,08,15,54,3.50
2016,12,08,15,55,4.70
2016,12,08,15,56,6.90
2016,12,08,15,57,11.30
2016,12,08,15,58,6.30
2016,12,08,15,59,5.50
2016,12,08,16,00,4.00
2016,12,08,16,01,4.30
2016,12,08,16,02,1.90
2016,12,08,16,03,6.40
2016,12,08,16,04,8.70
2016,12,08,16,05,8.00
2016,12,08,16,06,11.20
2016,12,08,16,07,4.20
2016,12,08,16,08,6.70
2016,12,08,16,09,5.30
2016,12,08,16,10,6.50
2016,12,08,16,11,7.40
2016,12,08,16,12,7.10
2016,12,08,16,13,11.50
2016,12,08,16,14,13.80
2016,12,08,16,15,1.80
2016,12,08,16,16,3.30
2016,12,08,16,17,6.00
2016,12,08,16,18,7.50
2016,12,08,16,19,6.10
2016,12,08,16,20,4.30
2016,12,08,16,21,9.30
2016,12,08,16,22,8.90
2016,12,08,16,23,8.40
2016,12,08,16,24,12.00
2016,12,08,16,25,4.30
2016,12,08,16,26,8.70
2016,12,08,16,27,5.20
2016,12,08,16,28,10.90
2016,12,08,16,29,8.20
2016,12,08,16,30,3.70
2016,12,08,16,31,4.40
2016,12,08,16,32,4.30
2016,12,08,16,33,6.40
2016,12,08,16,34,8.60
2016,12,08,16,35,5.50
2016,12,08,16,36,5.40
2016,12,08,16,37,6.70
2016,12,08,16,38,1.00
2016,12,08,16,39,4.40
2016,12,08,16,40,8.50
2016,12,08,16,41,4.70
2016,12,08,16,42,8.00
2016,12,08,16,43,2.70
2016,12,08,16,44,7.90
2016,12,08,16,45,3.10
2016,12,08,16,46,4.40
2016,12,08,16,47,8.10
2016,12,08,16,48,11.00
2016,12,08,16,49,5.70
2016,12,08,16,50,8.30
2016,12,08,16,51,9.10
2016,12,08,16,52,6.50
2016,12,08,16,53,5.50
2016,12,08,16,54,4.00
2016,12,08,16,55,5.50
2016,12,08,16,56,9.80
2016,12,08,16,57,9.00
2016,12,08,16,58,9.70
2016,12,08,16,59,14.00
2016,12,08,17,00,8.00
2016,12,08,17,01,7.70
2016,12,08,17,02,9.20
2016,12,08,17,03,8.30
2016,12,08,17,04,6.40
2016,12,08,17,05,4.30
2016,12,08,17,06,2.70
2016,12,08,17,07,4.10
2016,12,08,17,08,1.80
2016,12,08,17,09,0.50
2016,12,08,17,10,1.90
2016,12,08,17,11,2.30
2016,12,08,17,12,2.10
2016,12,08,17,13,1.50
2016,12,08,17,14,0.90
2016,12,08,17,15,1.50
2016,12,08,17,16,4.30
2016,12,08,17,17,2.10
2016,12,08,17,18,1.10
2016,12,08,17,19,0.00
2016,12,08,17,20,0.00
2016,12,08,17,21,0.00
2016,12,08,17,22,0.00
2016,12,08,17,23,0.00
2016,12,08,17,24,0.00
2016,12,08,17,25,2.20
2016,12,08,17,26,2.00
2016,12,08,17,27,0.00
2016,12,08,17,28,0.20
2016,12,08,17,29,0.80
2016,12,08,17,30,3.10
2016,12,08,17,31,1.50
2016,12,08,17,32,2.70
2016,12,08,17,33,2.60
2016,12,08,17,34,7.40
2016,12,08,17,35,2.90
2016,12,08,17,36,7.80
2016,12,08,17,37,6.50
2016,12,08,17,38,4.40
2016,12,08,17,39,1.20
2016,12,08,17,40,0.00
2016,12,08,17,41,0.00
2016,12,08,17,42,2.50
2016,12,08,17,43,5.40
2016,12,08,17,44,0.50
2016,12,08,17,45,2.10
2016,12,08,17,46,5.80
2016,12,08,17,47,8.40
2016,12,08,17,48,4.60
2016,12,08,17,49,18.10
2016,12,08,17,50,5.30
2016,12,08,17,51,11.90
2016,12,08,17,52,4.10
2016,12,08,17,53,0.20
2016,12,08,17,54,1.50
2016,12,08,17,55,13.60